This is the latest recevied weather packets stored in our database for station/object KD9DOE. If no packets are shown the sender has not sent any weather packets the latest 10 day(s).
| Time | Temp. | Humidity | Pressure | Rain* | Wind** | Luminosity | Snow |
|---|---|---|---|---|---|---|---|
| 1777770044 | 12.78° C | 35% | 1013.9 hPa | 0 mm | - | 2 W/m² | - |
| 1777769740 | 12.78° C | 33% | 1013.7 hPa | 0 mm | - | 3 W/m² | - |
| 1777769438 | 12.78° C | 33% | 1013.8 hPa | 0 mm | - | 4 W/m² | - |
| 1777769133 | 13.33° C | 34% | 1013.8 hPa | 0 mm | - | 6 W/m² | - |
| 1777768832 | 13.33° C | 33% | 1013.9 hPa | 0 mm | - | 8 W/m² | - |
| 1777768528 | 13.89° C | 33% | 1013.8 hPa | 0 mm | - | 10 W/m² | - |
| 1777768226 | 13.89° C | 31% | 1013.7 hPa | 0 mm | - | 12 W/m² | - |
| 1777767923 | 13.89° C | 32% | 1014 hPa | 0 mm | - | 15 W/m² | - |
| 1777767619 | 13.89° C | 31% | 1013.8 hPa | 0 mm | - | 17 W/m² | - |
| 1777767316 | 13.89° C | 31% | 1014 hPa | 0 mm | - | 20 W/m² | - |
| 1777767013 | 14.44° C | 32% | 1014.1 hPa | 0 mm | - | 24 W/m² | - |
| 1777766710 | 14.44° C | 31% | 1014 hPa | 0 mm | - | 27 W/m² | - |
| 1777766407 | 14.44° C | 30% | 1014 hPa | 0 mm | - | 26 W/m² | - |
| 1777766104 | 14.44° C | 30% | 1014.1 hPa | 0 mm | - | 26 W/m² | - |
| 1777765802 | 14.44° C | 30% | 1014.2 hPa | 0 mm | - | 30 W/m² | - |
| 1777765498 | 14.44° C | 29% | 1014.3 hPa | 0 mm | - | 38 W/m² | - |
| 1777765195 | 15° C | 29% | 1014.4 hPa | 0 mm | - | 45 W/m² | - |
| 1777764890 | 15° C | 28% | 1014.3 hPa | 0 mm | - | 39 W/m² | - |
| 1777764587 | 15° C | 28% | 1014.2 hPa | 0 mm | - | 40 W/m² | - |
| 1777764284 | 15° C | 28% | 1014.4 hPa | 0 mm | - | 36 W/m² | - |
| 1777763980 | 15° C | 27% | 1014.2 hPa | 0 mm | - | 115 W/m² | - |
| 1777763678 | 15° C | 27% | 1014.3 hPa | 0 mm | - | 82 W/m² | - |
| 1777763376 | 15° C | 29% | 1014.4 hPa | 0 mm | - | 162 W/m² | - |
| 1777763074 | 15° C | 29% | 1014.4 hPa | 0 mm | - | 120 W/m² | - |
| 1777762771 | 15° C | 28% | 1014.4 hPa | 0 mm | - | 49 W/m² | - |
* Rain latest hour (hover to see other rain measurements)
** Current wind speed in m/s (hover to see current wind gust speed)